Ft. Stewart, GA

1:50 PM EDT on April 27, 2017 (GMT -0400)
Wright Army Air Field

Weather History for KLHW - November, 2012

Change the Weather History Date:

Sunday, November 4, 2012

  Actual Average Record
Temperature  
Mean Temperature 68 °F -  
Max Temperature 85 °F 74 °F 85 °F (1972)
Min Temperature 52 °F 53 °F 27 °F (1966)
Cooling Degree Days 2    
Growing Degree Days 18 (Base 50)    
Moisture  
Dew Point 57 °F    
Average Humidity 72    
Maximum Humidity 100    
Minimum Humidity 39    
Precipitation  
Precipitation 0.00 in - - ()
Sea Level Pressure  
Sea Level Pressure 29.98 in    
Wind  
Wind Speed 3 mph (SW)    
Max Wind Speed 13 mph    
Max Gust Speed 16 mph    
Visibility 10 miles    
Events Rain , Thunderstorm    
Averages and records for this station are not official NWS values.
T = Trace of Precipitation, MM = Missing Value Source: NWS Daily Summary

Daily Weather History Graph

Daily Weather History Graph

Search for Another Location

Airport or City:

Trip Planner

Search our weather history database for the weather conditions in past years. The results will help you decide how hot, cold, wet, or windy it might be!

Date:

Astronomy

Nov. 04, 2012 Rise Set
Actual Time 6:45 AM EST 5:33 PM EST
Civil Twilight 6:20 AM EST 5:58 PM EST
Nautical Twilight 5:51 AM EST 6:27 PM EST
Astronomical Twilight 5:22 AM EST 6:56 PM EST
Moon 10:13 PM EST (11/4) 11:24 AM EST (11/4)
Length of Visible Light 11h 38m
Length of Day
10h 47m
Waning Gibbous, 72% of the Moon is Illuminated
Nov 4
Waning Gibbous
Nov 6
Last Quarter
Nov 13
New
Nov 20
First Quarter
Nov 28
Full

Hourly Weather History & Observations

Time (EST) Temp. Heat Index Dew Point Humidity Pressure Visibility Wind Dir Wind Speed Gust Speed Precip Events Conditions
12:55 AM 54.5 °F - 53.4 °F 96% 30.05 in 10.0 mi Calm Calm - N/A   Clear
1:55 AM 54.0 °F - 53.2 °F 97% 30.05 in 10.0 mi Calm Calm - N/A   Clear
1:05 AM 53.6 °F - 53.6 °F 100% 30.05 in 8.0 mi Calm Calm - N/A   Clear
1:14 AM 53.6 °F - 53.6 °F 100% 30.04 in 8.0 mi Calm Calm - N/A   Clear
1:55 AM 54.0 °F - 52.7 °F 95% 30.04 in 10.0 mi Calm Calm - N/A   Clear
2:55 AM 53.6 °F - 52.3 °F 95% 30.04 in 10.0 mi Calm Calm - N/A   Clear
3:55 AM 52.9 °F - 51.8 °F 96% 30.03 in 10.0 mi Calm Calm - N/A   Clear
4:55 AM 52.2 °F - 51.3 °F 97% 30.04 in 10.0 mi Calm Calm - N/A   Clear
5:55 AM 52.5 °F - 51.8 °F 97% 30.04 in 10.0 mi Calm Calm - N/A   Clear
6:55 AM 58.8 °F - 58.8 °F 100% 30.04 in 10.0 mi SW 4.6 mph - N/A   Clear
7:55 AM 61.9 °F - 60.8 °F 96% 30.05 in 10.0 mi WSW 3.5 mph - N/A   Clear
8:55 AM 68.7 °F - 61.2 °F 77% 30.05 in 10.0 mi West 6.9 mph - N/A   Clear
9:55 AM 74.1 °F - 60.8 °F 63% 30.04 in 7.0 mi WSW 8.1 mph - N/A   Clear
10:55 AM 79.3 °F - 60.8 °F 53% 30.02 in 7.0 mi SW 6.9 mph - N/A   Clear
11:55 AM 82.8 °F 83.1 °F 60.6 °F 47% 29.99 in 10.0 mi WSW 10.4 mph 16.1 mph N/A   Clear
12:55 PM 83.7 °F 83.1 °F 57.9 °F 41% 29.97 in 10.0 mi West 12.7 mph - N/A   Scattered Clouds
1:55 PM 83.5 °F 82.8 °F 56.5 °F 40% 29.94 in 10.0 mi West 10.4 mph - N/A   Partly Cloudy
2:55 PM 82.6 °F 81.8 °F 55.4 °F 39% 29.94 in 10.0 mi WSW 10.4 mph - N/A   Scattered Clouds
3:55 PM 81.0 °F 80.7 °F 55.2 °F 41% 29.93 in 10.0 mi SW 8.1 mph - N/A   Scattered Clouds
4:55 PM 79.9 °F - 56.8 °F 45% 29.92 in 10.0 mi SW 8.1 mph - N/A   Mostly Cloudy
5:55 PM 73.9 °F - 58.8 °F 59% 29.92 in 10.0 mi Calm Calm - N/A   Mostly Cloudy
6:55 PM 72.7 °F - 59.2 °F 62% 29.93 in 10.0 mi SSW 4.6 mph - N/A   Mostly Cloudy
7:55 PM 71.4 °F - 59.2 °F 65% 29.94 in 10.0 mi SW 4.6 mph - N/A   Mostly Cloudy
8:55 PM 70.0 °F - 59.4 °F 69% 29.93 in 10.0 mi SSW 5.8 mph - N/A   Mostly Cloudy
9:18 PM 69.8 °F - 59.0 °F 68% 29.94 in 10.0 mi Variable 4.6 mph - N/A Rain , Thunderstorm Light Rain
9:20 PM 69.8 °F - 59.0 °F 68% 29.94 in 10.0 mi SW 3.5 mph - N/A Rain , Thunderstorm Light Thunderstorms and Rain
9:28 PM 71.6 °F - 59.0 °F 64% 29.94 in 10.0 mi SSW 5.8 mph - N/A Thunderstorm Thunderstorm
9:35 PM 71.6 °F - 59.0 °F 64% 29.94 in 10.0 mi SSW 8.1 mph - N/A   Overcast
9:37 PM 71.6 °F - 59.0 °F 64% 29.94 in 10.0 mi SW 8.1 mph - N/A Rain Light Rain
9:47 PM 69.8 °F - 59.0 °F 68% 29.94 in 10.0 mi SW 6.9 mph - N/A   Overcast
9:55 PM 69.6 °F - 59.5 °F 70% 29.94 in 10.0 mi SW 6.9 mph - 0.00 in   Overcast
10:55 PM 67.8 °F - 59.0 °F 73% 29.95 in 10.0 mi West 6.9 mph - N/A   Clear